Overview Statistics Trail Chart Weather Telemetry Raw packets
 

This is the latest recevied weather packets stored in our database for station/object KN6WGU. If no packets are shown the sender has not sent any weather packets the latest 10 day(s).

<< 58 59 60 61 62 63 64 >>
Time Temp. Humidity Pressure Rain* Wind** Luminosity Snow
1788213876 29.44° C 69% 1009.9 hPa 0 mm - 83 W/m² -
1788213570 29.44° C 69% 1010 hPa 0 mm - 83 W/m² -
1788213266 29.44° C 68% 1009.7 hPa 0 mm - 92 W/m² -
1788212962 29.44° C 69% 1009.7 hPa 0 mm - 98 W/m² -
1788212660 29.44° C 68% 1010 hPa 0 mm - 96 W/m² -
1788212355 30° C 67% 1009.8 hPa 0 mm - 99 W/m² -
1788212052 29.44° C 68% 1009.8 hPa 0 mm - 108 W/m² -
1788211751 29.44° C 69% 1009.7 hPa 0 mm - 119 W/m² -
1788211448 29.44° C 69% 1009.7 hPa 0 mm - 133 W/m² -
1788211147 29.44° C 68% 1009.7 hPa 0 mm - 117 W/m² -
1788210842 30° C 66% 1009.9 hPa 0 mm - 105 W/m² -
1788210542 30° C 67% 1009.8 hPa 0 mm - 106 W/m² -
1788210237 30° C 66% 1009.9 hPa 0 mm - 120 W/m² -
1788209933 30° C 65% 1010.1 hPa 0 mm - 120 W/m² -
1788209629 30.56° C 65% 1010 hPa 0 mm - 162 W/m² -
1788209323 30° C 66% 1010.1 hPa 0 mm - 225 W/m² -
1788209022 30° C 67% 1010.4 hPa 0 mm - 164 W/m² -
1788208722 30° C 66% 1010.3 hPa 0 mm - 132 W/m² -
1788208417 30° C 65% 1010.2 hPa 0 mm - 209 W/m² -
1788208115 30° C 64% 1010.1 hPa 0 mm - 215 W/m² -
1788207811 30° C 65% 1010.1 hPa 0 mm - 202 W/m² -
1788207510 30° C 65% 1010.2 hPa 0 mm - 173 W/m² -
1788207209 30° C 64% 1010.2 hPa 0 mm - 151 W/m² -
1788206905 30° C 64% 1009.9 hPa 0 mm - 156 W/m² -
1788206600 30.56° C 64% 1010.1 hPa 0 mm - 141 W/m² -

* Rain latest hour (hover to see other rain measurements)
** Current wind speed in m/s (hover to see current wind gust speed)